User: anonymous   Login
Location: Unspecified
(33.0604°N, 0.0000°E)
Time: 08:01:57
(UTC+00:00)
Language:

RS-15 - Orbit

View from above orbital plane
View from above orbital plane
View from above satellite
View from above satellite

Ground track
Ground track

The orbit is defined by the following mean orbital elements,

1 23439U          26088.20712185 +.00000000 +00000-0 -28115-3 0 00005
2 23439  64.8147  72.5638 0153406  18.3966 342.2423 11.27583746    00
Epoch (UTC): 29 March 2026 04:58:15
Eccentricity: 0.0153406
inclination: 64.8147°
perigee height: 1893 km
apogee height: 2151 km
right ascension of ascending node: 72.5638°
argument of perigee: 18.3966°
revolutions per day: 11.27583746
mean anomaly at epoch: 342.2423°

The dashed part of the orbit path shows where the satellite is in the earth's shadow,  

DLR